Date Hour Ending, MW ,,,,,,,,,,,,,,,,,
03/01/2016 1:00,246,,,,,,,,,,,,,,,,,
03/01/2016 2:00,238,,,,,,,,,,,,,,,,,
03/01/2016 3:00,235,,,,,,,,,,,,,,,,,
03/01/2016 4:00,244,,,,,,,,,,,,,,,,,
03/01/2016 5:00,244,,,,,,,,,,,,,,,,,
03/01/2016 6:00,245,,,,,,,,,,,,,,,,,
03/01/2016 7:00,328,,,,,,,,,,,,,,,,,
03/01/2016 8:00,362,,,,,,,,,,,,,,,,,
03/01/2016 9:00,318,,,,,,,,,,,,,,,,,
03/01/2016 10:00,295,,,,,,,,,,,,,,,,,
03/01/2016 11:00,333,,,,,,,,,,,,,,,,,
03/01/2016 12:00,309,,,,,,,,,,,,,,,,,
03/01/2016 13:00,308,,,,,,,,,,,,,,,,,
03/01/2016 14:00,298,,,,,,,,,,,,,,,,,
03/01/2016 15:00,301,,,,,,,,,,,,,,,,,
03/01/2016 16:00,302,,,,,,,,,,,,,,,,,
03/01/2016 17:00,309,,,,,,,,,,,,,,,,,
03/01/2016 18:00,365,,,,,,,,,,,,,,,,,
03/01/2016 19:00,435,,,,,,,,,,,,,,,,,
03/01/2016 20:00,427,,,,,,,,,,,,,,,,,
03/01/2016 21:00,447,,,,,,,,,,,,,,,,,
03/01/2016 22:00,421,,,,,,,,,,,,,,,,,
03/01/2016 23:00,419,,,,,,,,,,,,,,,,,
03/02/2016 0:00,415,,,,,,,,,,,,,,,,,
03/02/2016 1:00,458,,,,,,,,,,,,,,,,,
03/02/2016 2:00,435,,,,,,,,,,,,,,,,,
03/02/2016 3:00,409,,,,,,,,,,,,,,,,,
03/02/2016 4:00,420,,,,,,,,,,,,,,,,,
03/02/2016 5:00,401,,,,,,,,,,,,,,,,,
03/02/2016 6:00,353,,,,,,,,,,,,,,,,,
03/02/2016 7:00,422,,,,,,,,,,,,,,,,,
03/02/2016 8:00,486,,,,,,,,,,,,,,,,,
03/02/2016 9:00,473,,,,,,,,,,,,,,,,,
03/02/2016 10:00,435,,,,,,,,,,,,,,,,,
03/02/2016 11:00,418,,,,,,,,,,,,,,,,,
03/02/2016 12:00,417,,,,,,,,,,,,,,,,,
03/02/2016 13:00,445,,,,,,,,,,,,,,,,,
03/02/2016 14:00,459,,,,,,,,,,,,,,,,,
03/02/2016 15:00,462,,,,,,,,,,,,,,,,,
03/02/2016 16:00,453,,,,,,,,,,,,,,,,,
03/02/2016 17:00,458,,,,,,,,,,,,,,,,,
03/02/2016 18:00,466,,,,,,,,,,,,,,,,,
03/02/2016 19:00,464,,,,,,,,,,,,,,,,,
03/02/2016 20:00,449,,,,,,,,,,,,,,,,,
03/02/2016 21:00,434,,,,,,,,,,,,,,,,,
03/02/2016 22:00,381,,,,,,,,,,,,,,,,,
03/02/2016 23:00,338,,,,,,,,,,,,,,,,,
03/03/2016 0:00,263,,,,,,,,,,,,,,,,,
03/03/2016 1:00,202,,,,,,,,,,,,,,,,,
03/03/2016 2:00,194,,,,,,,,,,,,,,,,,
03/03/2016 3:00,197,,,,,,,,,,,,,,,,,
03/03/2016 4:00,199,,,,,,,,,,,,,,,,,
03/03/2016 5:00,223,,,,,,,,,,,,,,,,,
03/03/2016 6:00,297,,,,,,,,,,,,,,,,,
03/03/2016 7:00,419,,,,,,,,,,,,,,,,,
03/03/2016 8:00,519,,,,,,,,,,,,,,,,,
03/03/2016 9:00,538,,,,,,,,,,,,,,,,,
03/03/2016 10:00,541,,,,,,,,,,,,,,,,,
03/03/2016 11:00,532,,,,,,,,,,,,,,,,,
03/03/2016 12:00,481,,,,,,,,,,,,,,,,,
03/03/2016 13:00,475,,,,,,,,,,,,,,,,,
03/03/2016 14:00,442,,,,,,,,,,,,,,,,,
03/03/2016 15:00,424,,,,,,,,,,,,,,,,,
03/03/2016 16:00,399,,,,,,,,,,,,,,,,,
03/03/2016 17:00,390,,,,,,,,,,,,,,,,,
03/03/2016 18:00,423,,,,,,,,,,,,,,,,,
03/03/2016 19:00,472,,,,,,,,,,,,,,,,,
03/03/2016 20:00,492,,,,,,,,,,,,,,,,,
03/03/2016 21:00,491,,,,,,,,,,,,,,,,,
03/03/2016 22:00,457,,,,,,,,,,,,,,,,,
03/03/2016 23:00,398,,,,,,,,,,,,,,,,,
03/04/2016 0:00,383,,,,,,,,,,,,,,,,,
03/04/2016 1:00,343,,,,,,,,,,,,,,,,,
03/04/2016 2:00,384,,,,,,,,,,,,,,,,,
03/04/2016 3:00,407,,,,,,,,,,,,,,,,,
03/04/2016 4:00,448,,,,,,,,,,,,,,,,,
03/04/2016 5:00,444,,,,,,,,,,,,,,,,,
03/04/2016 6:00,483,,,,,,,,,,,,,,,,,
03/04/2016 7:00,576,,,,,,,,,,,,,,,,,
03/04/2016 8:00,617,,,,,,,,,,,,,,,,,
03/04/2016 9:00,599,,,,,,,,,,,,,,,,,
03/04/2016 10:00,605,,,,,,,,,,,,,,,,,
03/04/2016 11:00,571,,,,,,,,,,,,,,,,,
03/04/2016 12:00,518,,,,,,,,,,,,,,,,,
03/04/2016 13:00,493,,,,,,,,,,,,,,,,,
03/04/2016 14:00,496,,,,,,,,,,,,,,,,,
03/04/2016 15:00,473,,,,,,,,,,,,,,,,,
03/04/2016 16:00,451,,,,,,,,,,,,,,,,,
03/04/2016 17:00,452,,,,,,,,,,,,,,,,,
03/04/2016 18:00,467,,,,,,,,,,,,,,,,,
03/04/2016 19:00,485,,,,,,,,,,,,,,,,,
03/04/2016 20:00,488,,,,,,,,,,,,,,,,,
03/04/2016 21:00,470,,,,,,,,,,,,,,,,,
03/04/2016 22:00,433,,,,,,,,,,,,,,,,,
03/04/2016 23:00,389,,,,,,,,,,,,,,,,,
03/05/2016 0:00,406,,,,,,,,,,,,,,,,,
03/05/2016 1:00,393,,,,,,,,,,,,,,,,,
03/05/2016 2:00,390,,,,,,,,,,,,,,,,,
03/05/2016 3:00,386,,,,,,,,,,,,,,,,,
03/05/2016 4:00,334,,,,,,,,,,,,,,,,,
03/05/2016 5:00,330,,,,,,,,,,,,,,,,,
03/05/2016 6:00,321,,,,,,,,,,,,,,,,,
03/05/2016 7:00,350,,,,,,,,,,,,,,,,,
03/05/2016 8:00,401,,,,,,,,,,,,,,,,,
03/05/2016 9:00,482,,,,,,,,,,,,,,,,,
03/05/2016 10:00,556,,,,,,,,,,,,,,,,,
03/05/2016 11:00,554,,,,,,,,,,,,,,,,,
03/05/2016 12:00,559,,,,,,,,,,,,,,,,,
03/05/2016 13:00,547,,,,,,,,,,,,,,,,,
03/05/2016 14:00,502,,,,,,,,,,,,,,,,,
03/05/2016 15:00,459,,,,,,,,,,,,,,,,,
03/05/2016 16:00,484,,,,,,,,,,,,,,,,,
03/05/2016 17:00,515,,,,,,,,,,,,,,,,,
03/05/2016 18:00,534,,,,,,,,,,,,,,,,,
03/05/2016 19:00,566,,,,,,,,,,,,,,,,,
03/05/2016 20:00,585,,,,,,,,,,,,,,,,,
03/05/2016 21:00,560,,,,,,,,,,,,,,,,,
03/05/2016 22:00,529,,,,,,,,,,,,,,,,,
03/05/2016 23:00,502,,,,,,,,,,,,,,,,,
03/06/2016 0:00,465,,,,,,,,,,,,,,,,,
03/06/2016 1:00,450,,,,,,,,,,,,,,,,,
03/06/2016 2:00,471,,,,,,,,,,,,,,,,,
03/06/2016 3:00,490,,,,,,,,,,,,,,,,,
03/06/2016 4:00,496,,,,,,,,,,,,,,,,,
03/06/2016 5:00,537,,,,,,,,,,,,,,,,,
03/06/2016 6:00,573,,,,,,,,,,,,,,,,,
03/06/2016 7:00,583,,,,,,,,,,,,,,,,,
03/06/2016 8:00,539,,,,,,,,,,,,,,,,,
03/06/2016 9:00,533,,,,,,,,,,,,,,,,,
03/06/2016 10:00,538,,,,,,,,,,,,,,,,,
03/06/2016 11:00,533,,,,,,,,,,,,,,,,,
03/06/2016 12:00,517,,,,,,,,,,,,,,,,,
03/06/2016 13:00,490,,,,,,,,,,,,,,,,,
03/06/2016 14:00,453,,,,,,,,,,,,,,,,,
03/06/2016 15:00,432,,,,,,,,,,,,,,,,,
03/06/2016 16:00,445,,,,,,,,,,,,,,,,,
03/06/2016 17:00,471,,,,,,,,,,,,,,,,,
03/06/2016 18:00,498,,,,,,,,,,,,,,,,,
03/06/2016 19:00,548,,,,,,,,,,,,,,,,,
03/06/2016 20:00,563,,,,,,,,,,,,,,,,,
03/06/2016 21:00,541,,,,,,,,,,,,,,,,,
03/06/2016 22:00,482,,,,,,,,,,,,,,,,,
03/06/2016 23:00,494,,,,,,,,,,,,,,,,,
03/07/2016 0:00,466,,,,,,,,,,,,,,,,,
03/07/2016 1:00,499,,,,,,,,,,,,,,,,,
03/07/2016 2:00,483,,,,,,,,,,,,,,,,,
03/07/2016 3:00,502,,,,,,,,,,,,,,,,,
03/07/2016 4:00,535,,,,,,,,,,,,,,,,,
03/07/2016 5:00,565,,,,,,,,,,,,,,,,,
03/07/2016 6:00,620,,,,,,,,,,,,,,,,,
03/07/2016 7:00,636,,,,,,,,,,,,,,,,,
03/07/2016 8:00,633,,,,,,,,,,,,,,,,,
03/07/2016 9:00,591,,,,,,,,,,,,,,,,,
03/07/2016 10:00,547,,,,,,,,,,,,,,,,,
03/07/2016 11:00,501,,,,,,,,,,,,,,,,,
03/07/2016 12:00,436,,,,,,,,,,,,,,,,,
03/07/2016 13:00,380,,,,,,,,,,,,,,,,,
03/07/2016 14:00,384,,,,,,,,,,,,,,,,,
03/07/2016 15:00,353,,,,,,,,,,,,,,,,,
03/07/2016 16:00,301,,,,,,,,,,,,,,,,,
03/07/2016 17:00,308,,,,,,,,,,,,,,,,,
03/07/2016 18:00,366,,,,,,,,,,,,,,,,,
03/07/2016 19:00,414,,,,,,,,,,,,,,,,,
03/07/2016 20:00,447,,,,,,,,,,,,,,,,,
03/07/2016 21:00,419,,,,,,,,,,,,,,,,,
03/07/2016 22:00,395,,,,,,,,,,,,,,,,,
03/07/2016 23:00,346,,,,,,,,,,,,,,,,,
03/08/2016 0:00,325,,,,,,,,,,,,,,,,,
03/08/2016 1:00,329,,,,,,,,,,,,,,,,,
03/08/2016 2:00,332,,,,,,,,,,,,,,,,,
03/08/2016 3:00,315,,,,,,,,,,,,,,,,,
03/08/2016 4:00,293,,,,,,,,,,,,,,,,,
03/08/2016 5:00,283,,,,,,,,,,,,,,,,,
03/08/2016 6:00,314,,,,,,,,,,,,,,,,,
03/08/2016 7:00,384,,,,,,,,,,,,,,,,,
03/08/2016 8:00,415,,,,,,,,,,,,,,,,,
03/08/2016 9:00,390,,,,,,,,,,,,,,,,,
03/08/2016 10:00,368,,,,,,,,,,,,,,,,,
03/08/2016 11:00,377,,,,,,,,,,,,,,,,,
03/08/2016 12:00,344,,,,,,,,,,,,,,,,,
03/08/2016 13:00,348,,,,,,,,,,,,,,,,,
03/08/2016 14:00,336,,,,,,,,,,,,,,,,,
03/08/2016 15:00,318,,,,,,,,,,,,,,,,,
03/08/2016 16:00,288,,,,,,,,,,,,,,,,,
03/08/2016 17:00,277,,,,,,,,,,,,,,,,,
03/08/2016 18:00,281,,,,,,,,,,,,,,,,,
03/08/2016 19:00,343,,,,,,,,,,,,,,,,,
03/08/2016 20:00,352,,,,,,,,,,,,,,,,,
03/08/2016 21:00,367,,,,,,,,,,,,,,,,,
03/08/2016 22:00,367,,,,,,,,,,,,,,,,,
03/08/2016 23:00,350,,,,,,,,,,,,,,,,,
03/09/2016 0:00,364,,,,,,,,,,,,,,,,,
03/09/2016 1:00,352,,,,,,,,,,,,,,,,,
03/09/2016 2:00,366,,,,,,,,,,,,,,,,,
03/09/2016 3:00,372,,,,,,,,,,,,,,,,,
03/09/2016 4:00,368,,,,,,,,,,,,,,,,,
03/09/2016 5:00,375,,,,,,,,,,,,,,,,,
03/09/2016 6:00,361,,,,,,,,,,,,,,,,,
03/09/2016 7:00,380,,,,,,,,,,,,,,,,,
03/09/2016 8:00,407,,,,,,,,,,,,,,,,,
03/09/2016 9:00,433,,,,,,,,,,,,,,,,,
03/09/2016 10:00,397,,,,,,,,,,,,,,,,,
03/09/2016 11:00,389,,,,,,,,,,,,,,,,,
03/09/2016 12:00,409,,,,,,,,,,,,,,,,,
03/09/2016 13:00,401,,,,,,,,,,,,,,,,,
03/09/2016 14:00,368,,,,,,,,,,,,,,,,,
03/09/2016 15:00,345,,,,,,,,,,,,,,,,,
03/09/2016 16:00,353,,,,,,,,,,,,,,,,,
03/09/2016 17:00,365,,,,,,,,,,,,,,,,,
03/09/2016 18:00,373,,,,,,,,,,,,,,,,,
03/09/2016 19:00,370,,,,,,,,,,,,,,,,,
03/09/2016 20:00,355,,,,,,,,,,,,,,,,,
03/09/2016 21:00,313,,,,,,,,,,,,,,,,,
03/09/2016 22:00,269,,,,,,,,,,,,,,,,,
03/09/2016 23:00,255,,,,,,,,,,,,,,,,,
03/10/2016 0:00,219,,,,,,,,,,,,,,,,,
03/10/2016 1:00,173,,,,,,,,,,,,,,,,,
03/10/2016 2:00,148,,,,,,,,,,,,,,,,,
03/10/2016 3:00,150,,,,,,,,,,,,,,,,,
03/10/2016 4:00,177,,,,,,,,,,,,,,,,,
03/10/2016 5:00,159,,,,,,,,,,,,,,,,,
03/10/2016 6:00,172,,,,,,,,,,,,,,,,,
03/10/2016 7:00,257,,,,,,,,,,,,,,,,,
03/10/2016 8:00,329,,,,,,,,,,,,,,,,,
03/10/2016 9:00,399,,,,,,,,,,,,,,,,,
03/10/2016 10:00,380,,,,,,,,,,,,,,,,,
03/10/2016 11:00,367,,,,,,,,,,,,,,,,,
03/10/2016 12:00,361,,,,,,,,,,,,,,,,,
03/10/2016 13:00,370,,,,,,,,,,,,,,,,,
03/10/2016 14:00,387,,,,,,,,,,,,,,,,,
03/10/2016 15:00,408,,,,,,,,,,,,,,,,,
03/10/2016 16:00,432,,,,,,,,,,,,,,,,,
03/10/2016 17:00,423,,,,,,,,,,,,,,,,,
03/10/2016 18:00,434,,,,,,,,,,,,,,,,,
03/10/2016 19:00,418,,,,,,,,,,,,,,,,,
03/10/2016 20:00,388,,,,,,,,,,,,,,,,,
03/10/2016 21:00,373,,,,,,,,,,,,,,,,,
03/10/2016 22:00,402,,,,,,,,,,,,,,,,,
03/10/2016 23:00,445,,,,,,,,,,,,,,,,,
03/11/2016 0:00,439,,,,,,,,,,,,,,,,,
03/11/2016 1:00,430,,,,,,,,,,,,,,,,,
03/11/2016 2:00,398,,,,,,,,,,,,,,,,,
03/11/2016 3:00,447,,,,,,,,,,,,,,,,,
03/11/2016 4:00,456,,,,,,,,,,,,,,,,,
03/11/2016 5:00,454,,,,,,,,,,,,,,,,,
03/11/2016 6:00,435,,,,,,,,,,,,,,,,,
03/11/2016 7:00,471,,,,,,,,,,,,,,,,,
03/11/2016 8:00,486,,,,,,,,,,,,,,,,,
03/11/2016 9:00,503,,,,,,,,,,,,,,,,,
03/11/2016 10:00,520,,,,,,,,,,,,,,,,,
03/11/2016 11:00,509,,,,,,,,,,,,,,,,,
03/11/2016 12:00,509,,,,,,,,,,,,,,,,,
03/11/2016 13:00,503,,,,,,,,,,,,,,,,,
03/11/2016 14:00,505,,,,,,,,,,,,,,,,,
03/11/2016 15:00,527,,,,,,,,,,,,,,,,,
03/11/2016 16:00,518,,,,,,,,,,,,,,,,,
03/11/2016 17:00,524,,,,,,,,,,,,,,,,,
03/11/2016 18:00,532,,,,,,,,,,,,,,,,,
03/11/2016 19:00,506,,,,,,,,,,,,,,,,,
03/11/2016 20:00,521,,,,,,,,,,,,,,,,,
03/11/2016 21:00,511,,,,,,,,,,,,,,,,,
03/11/2016 22:00,483,,,,,,,,,,,,,,,,,
03/11/2016 23:00,422,,,,,,,,,,,,,,,,,
03/12/2016 0:00,398,,,,,,,,,,,,,,,,,
03/12/2016 1:00,364,,,,,,,,,,,,,,,,,
03/12/2016 2:00,354,,,,,,,,,,,,,,,,,
03/12/2016 3:00,352,,,,,,,,,,,,,,,,,
03/12/2016 4:00,339,,,,,,,,,,,,,,,,,
03/12/2016 5:00,341,,,,,,,,,,,,,,,,,
03/12/2016 6:00,369,,,,,,,,,,,,,,,,,
03/12/2016 7:00,386,,,,,,,,,,,,,,,,,
03/12/2016 8:00,404,,,,,,,,,,,,,,,,,
03/12/2016 9:00,436,,,,,,,,,,,,,,,,,
03/12/2016 10:00,465,,,,,,,,,,,,,,,,,
03/12/2016 11:00,497,,,,,,,,,,,,,,,,,
03/12/2016 12:00,558,,,,,,,,,,,,,,,,,
03/12/2016 13:00,547,,,,,,,,,,,,,,,,,
03/12/2016 14:00,507,,,,,,,,,,,,,,,,,
03/12/2016 15:00,448,,,,,,,,,,,,,,,,,
03/12/2016 16:00,414,,,,,,,,,,,,,,,,,
03/12/2016 17:00,429,,,,,,,,,,,,,,,,,
03/12/2016 18:00,465,,,,,,,,,,,,,,,,,
03/12/2016 19:00,429,,,,,,,,,,,,,,,,,
03/12/2016 20:00,367,,,,,,,,,,,,,,,,,
03/12/2016 21:00,349,,,,,,,,,,,,,,,,,
03/12/2016 22:00,335,,,,,,,,,,,,,,,,,
03/12/2016 23:00,312,,,,,,,,,,,,,,,,,
03/13/2016 0:00,280,,,,,,,,,,,,,,,,,
03/13/2016 1:00,245,,,,,,,,,,,,,,,,,
03/13/2016 2:00,200,,,,,,,,,,,,,,,,,
03/13/2016 3:00,161,,,,,,,,,,,,,,,,,
03/13/2016 4:00,161,,,,,,,,,,,,,,,,,
03/13/2016 5:00,144,,,,,,,,,,,,,,,,,
03/13/2016 6:00,193,,,,,,,,,,,,,,,,,
03/13/2016 7:00,211,,,,,,,,,,,,,,,,,
03/13/2016 8:00,243,,,,,,,,,,,,,,,,,
03/13/2016 9:00,251,,,,,,,,,,,,,,,,,
03/13/2016 10:00,263,,,,,,,,,,,,,,,,,
03/13/2016 11:00,313,,,,,,,,,,,,,,,,,
03/13/2016 12:00,328,,,,,,,,,,,,,,,,,
03/13/2016 13:00,338,,,,,,,,,,,,,,,,,
03/13/2016 14:00,311,,,,,,,,,,,,,,,,,
03/13/2016 15:00,270,,,,,,,,,,,,,,,,,
03/13/2016 16:00,291,,,,,,,,,,,,,,,,,
03/13/2016 17:00,307,,,,,,,,,,,,,,,,,
03/13/2016 18:00,320,,,,,,,,,,,,,,,,,
03/13/2016 19:00,357,,,,,,,,,,,,,,,,,
03/13/2016 20:00,367,,,,,,,,,,,,,,,,,
03/13/2016 21:00,346,,,,,,,,,,,,,,,,,
03/13/2016 22:00,328,,,,,,,,,,,,,,,,,
03/13/2016 23:00,340,,,,,,,,,,,,,,,,,
03/14/2016 0:00,341,,,,,,,,,,,,,,,,,
03/14/2016 1:00,342,,,,,,,,,,,,,,,,,
03/14/2016 2:00,284,,,,,,,,,,,,,,,,,
03/14/2016 3:00,286,,,,,,,,,,,,,,,,,
03/14/2016 4:00,310,,,,,,,,,,,,,,,,,
03/14/2016 5:00,423,,,,,,,,,,,,,,,,,
03/14/2016 6:00,487,,,,,,,,,,,,,,,,,
03/14/2016 7:00,541,,,,,,,,,,,,,,,,,
03/14/2016 8:00,581,,,,,,,,,,,,,,,,,
03/14/2016 9:00,573,,,,,,,,,,,,,,,,,
03/14/2016 10:00,541,,,,,,,,,,,,,,,,,
03/14/2016 11:00,474,,,,,,,,,,,,,,,,,
03/14/2016 12:00,456,,,,,,,,,,,,,,,,,
03/14/2016 13:00,446,,,,,,,,,,,,,,,,,
03/14/2016 14:00,406,,,,,,,,,,,,,,,,,
03/14/2016 15:00,391,,,,,,,,,,,,,,,,,
03/14/2016 16:00,375,,,,,,,,,,,,,,,,,
03/14/2016 17:00,398,,,,,,,,,,,,,,,,,
03/14/2016 18:00,397,,,,,,,,,,,,,,,,,
03/14/2016 19:00,435,,,,,,,,,,,,,,,,,
03/14/2016 20:00,461,,,,,,,,,,,,,,,,,
03/14/2016 21:00,432,,,,,,,,,,,,,,,,,
03/14/2016 22:00,419,,,,,,,,,,,,,,,,,
03/14/2016 23:00,389,,,,,,,,,,,,,,,,,
03/15/2016 0:00,334,,,,,,,,,,,,,,,,,
03/15/2016 1:00,327,,,,,,,,,,,,,,,,,
03/15/2016 2:00,311,,,,,,,,,,,,,,,,,
03/15/2016 3:00,303,,,,,,,,,,,,,,,,,
03/15/2016 4:00,323,,,,,,,,,,,,,,,,,
03/15/2016 5:00,348,,,,,,,,,,,,,,,,,
03/15/2016 6:00,397,,,,,,,,,,,,,,,,,
03/15/2016 7:00,454,,,,,,,,,,,,,,,,,
03/15/2016 8:00,449,,,,,,,,,,,,,,,,,
03/15/2016 9:00,439,,,,,,,,,,,,,,,,,
03/15/2016 10:00,406,,,,,,,,,,,,,,,,,
03/15/2016 11:00,401,,,,,,,,,,,,,,,,,
03/15/2016 12:00,367,,,,,,,,,,,,,,,,,
03/15/2016 13:00,342,,,,,,,,,,,,,,,,,
03/15/2016 14:00,369,,,,,,,,,,,,,,,,,
03/15/2016 15:00,358,,,,,,,,,,,,,,,,,
03/15/2016 16:00,369,,,,,,,,,,,,,,,,,
03/15/2016 17:00,376,,,,,,,,,,,,,,,,,
03/15/2016 18:00,357,,,,,,,,,,,,,,,,,
03/15/2016 19:00,371,,,,,,,,,,,,,,,,,
03/15/2016 20:00,395,,,,,,,,,,,,,,,,,
03/15/2016 21:00,376,,,,,,,,,,,,,,,,,
03/15/2016 22:00,306,,,,,,,,,,,,,,,,,
03/15/2016 23:00,250,,,,,,,,,,,,,,,,,
03/16/2016 0:00,217,,,,,,,,,,,,,,,,,
03/16/2016 1:00,208,,,,,,,,,,,,,,,,,
03/16/2016 2:00,206,,,,,,,,,,,,,,,,,
03/16/2016 3:00,202,,,,,,,,,,,,,,,,,
03/16/2016 4:00,230,,,,,,,,,,,,,,,,,
03/16/2016 5:00,272,,,,,,,,,,,,,,,,,
03/16/2016 6:00,307,,,,,,,,,,,,,,,,,
03/16/2016 7:00,311,,,,,,,,,,,,,,,,,
03/16/2016 8:00,316,,,,,,,,,,,,,,,,,
03/16/2016 9:00,324,,,,,,,,,,,,,,,,,
03/16/2016 10:00,362,,,,,,,,,,,,,,,,,
03/16/2016 11:00,399,,,,,,,,,,,,,,,,,
03/16/2016 12:00,408,,,,,,,,,,,,,,,,,
03/16/2016 13:00,386,,,,,,,,,,,,,,,,,
03/16/2016 14:00,337,,,,,,,,,,,,,,,,,
03/16/2016 15:00,344,,,,,,,,,,,,,,,,,
03/16/2016 16:00,352,,,,,,,,,,,,,,,,,
03/16/2016 17:00,353,,,,,,,,,,,,,,,,,
03/16/2016 18:00,362,,,,,,,,,,,,,,,,,
03/16/2016 19:00,373,,,,,,,,,,,,,,,,,
03/16/2016 20:00,380,,,,,,,,,,,,,,,,,
03/16/2016 21:00,381,,,,,,,,,,,,,,,,,
03/16/2016 22:00,339,,,,,,,,,,,,,,,,,
03/16/2016 23:00,325,,,,,,,,,,,,,,,,,
03/17/2016 0:00,315,,,,,,,,,,,,,,,,,
03/17/2016 1:00,282,,,,,,,,,,,,,,,,,
03/17/2016 2:00,279,,,,,,,,,,,,,,,,,
03/17/2016 3:00,270,,,,,,,,,,,,,,,,,
03/17/2016 4:00,281,,,,,,,,,,,,,,,,,
03/17/2016 5:00,295,,,,,,,,,,,,,,,,,
03/17/2016 6:00,392,,,,,,,,,,,,,,,,,
03/17/2016 7:00,469,,,,,,,,,,,,,,,,,
03/17/2016 8:00,468,,,,,,,,,,,,,,,,,
03/17/2016 9:00,420,,,,,,,,,,,,,,,,,
03/17/2016 10:00,415,,,,,,,,,,,,,,,,,
03/17/2016 11:00,440,,,,,,,,,,,,,,,,,
03/17/2016 12:00,420,,,,,,,,,,,,,,,,,
03/17/2016 13:00,429,,,,,,,,,,,,,,,,,
03/17/2016 14:00,453,,,,,,,,,,,,,,,,,
03/17/2016 15:00,480,,,,,,,,,,,,,,,,,
03/17/2016 16:00,479,,,,,,,,,,,,,,,,,
03/17/2016 17:00,477,,,,,,,,,,,,,,,,,
03/17/2016 18:00,479,,,,,,,,,,,,,,,,,
03/17/2016 19:00,448,,,,,,,,,,,,,,,,,
03/17/2016 20:00,443,,,,,,,,,,,,,,,,,
03/17/2016 21:00,416,,,,,,,,,,,,,,,,,
03/17/2016 22:00,380,,,,,,,,,,,,,,,,,
03/17/2016 23:00,368,,,,,,,,,,,,,,,,,
03/18/2016 0:00,347,,,,,,,,,,,,,,,,,
03/18/2016 1:00,362,,,,,,,,,,,,,,,,,
03/18/2016 2:00,297,,,,,,,,,,,,,,,,,
03/18/2016 3:00,334,,,,,,,,,,,,,,,,,
03/18/2016 4:00,324,,,,,,,,,,,,,,,,,
03/18/2016 5:00,324,,,,,,,,,,,,,,,,,
03/18/2016 6:00,383,,,,,,,,,,,,,,,,,
03/18/2016 7:00,427,,,,,,,,,,,,,,,,,
03/18/2016 8:00,433,,,,,,,,,,,,,,,,,
03/18/2016 9:00,412,,,,,,,,,,,,,,,,,
03/18/2016 10:00,382,,,,,,,,,,,,,,,,,
03/18/2016 11:00,399,,,,,,,,,,,,,,,,,
03/18/2016 12:00,428,,,,,,,,,,,,,,,,,
03/18/2016 13:00,403,,,,,,,,,,,,,,,,,
03/18/2016 14:00,393,,,,,,,,,,,,,,,,,
03/18/2016 15:00,406,,,,,,,,,,,,,,,,,
03/18/2016 16:00,422,,,,,,,,,,,,,,,,,
03/18/2016 17:00,429,,,,,,,,,,,,,,,,,
03/18/2016 18:00,390,,,,,,,,,,,,,,,,,
03/18/2016 19:00,404,,,,,,,,,,,,,,,,,
03/18/2016 20:00,412,,,,,,,,,,,,,,,,,
03/18/2016 21:00,364,,,,,,,,,,,,,,,,,
03/18/2016 22:00,348,,,,,,,,,,,,,,,,,
03/18/2016 23:00,348,,,,,,,,,,,,,,,,,
03/19/2016 0:00,345,,,,,,,,,,,,,,,,,
03/19/2016 1:00,342,,,,,,,,,,,,,,,,,
03/19/2016 2:00,308,,,,,,,,,,,,,,,,,
03/19/2016 3:00,300,,,,,,,,,,,,,,,,,
03/19/2016 4:00,295,,,,,,,,,,,,,,,,,
03/19/2016 5:00,314,,,,,,,,,,,,,,,,,
03/19/2016 6:00,325,,,,,,,,,,,,,,,,,
03/19/2016 7:00,378,,,,,,,,,,,,,,,,,
03/19/2016 8:00,400,,,,,,,,,,,,,,,,,
03/19/2016 9:00,429,,,,,,,,,,,,,,,,,
03/19/2016 10:00,443,,,,,,,,,,,,,,,,,
03/19/2016 11:00,504,,,,,,,,,,,,,,,,,
03/19/2016 12:00,497,,,,,,,,,,,,,,,,,
03/19/2016 13:00,451,,,,,,,,,,,,,,,,,
03/19/2016 14:00,448,,,,,,,,,,,,,,,,,
03/19/2016 15:00,431,,,,,,,,,,,,,,,,,
03/19/2016 16:00,427,,,,,,,,,,,,,,,,,
03/19/2016 17:00,456,,,,,,,,,,,,,,,,,
03/19/2016 18:00,501,,,,,,,,,,,,,,,,,
03/19/2016 19:00,538,,,,,,,,,,,,,,,,,
03/19/2016 20:00,542,,,,,,,,,,,,,,,,,
03/19/2016 21:00,560,,,,,,,,,,,,,,,,,
03/19/2016 22:00,522,,,,,,,,,,,,,,,,,
03/19/2016 23:00,481,,,,,,,,,,,,,,,,,
03/20/2016 0:00,441,,,,,,,,,,,,,,,,,
03/20/2016 1:00,419,,,,,,,,,,,,,,,,,
03/20/2016 2:00,414,,,,,,,,,,,,,,,,,
03/20/2016 3:00,393,,,,,,,,,,,,,,,,,
03/20/2016 4:00,407,,,,,,,,,,,,,,,,,
03/20/2016 5:00,446,,,,,,,,,,,,,,,,,
03/20/2016 6:00,494,,,,,,,,,,,,,,,,,
03/20/2016 7:00,551,,,,,,,,,,,,,,,,,
03/20/2016 8:00,604,,,,,,,,,,,,,,,,,
03/20/2016 9:00,621,,,,,,,,,,,,,,,,,
03/20/2016 10:00,585,,,,,,,,,,,,,,,,,
03/20/2016 11:00,604,,,,,,,,,,,,,,,,,
03/20/2016 12:00,619,,,,,,,,,,,,,,,,,
03/20/2016 13:00,588,,,,,,,,,,,,,,,,,
03/20/2016 14:00,537,,,,,,,,,,,,,,,,,
03/20/2016 15:00,520,,,,,,,,,,,,,,,,,
03/20/2016 16:00,523,,,,,,,,,,,,,,,,,
03/20/2016 17:00,530,,,,,,,,,,,,,,,,,
03/20/2016 18:00,547,,,,,,,,,,,,,,,,,
03/20/2016 19:00,577,,,,,,,,,,,,,,,,,
03/20/2016 20:00,621,,,,,,,,,,,,,,,,,
03/20/2016 21:00,594,,,,,,,,,,,,,,,,,
03/20/2016 22:00,558,,,,,,,,,,,,,,,,,
03/20/2016 23:00,484,,,,,,,,,,,,,,,,,
03/21/2016 0:00,447,,,,,,,,,,,,,,,,,
03/21/2016 1:00,435,,,,,,,,,,,,,,,,,
03/21/2016 2:00,422,,,,,,,,,,,,,,,,,
03/21/2016 3:00,434,,,,,,,,,,,,,,,,,
03/21/2016 4:00,433,,,,,,,,,,,,,,,,,
03/21/2016 5:00,437,,,,,,,,,,,,,,,,,
03/21/2016 6:00,496,,,,,,,,,,,,,,,,,
03/21/2016 7:00,550,,,,,,,,,,,,,,,,,
03/21/2016 8:00,591,,,,,,,,,,,,,,,,,
03/21/2016 9:00,611,,,,,,,,,,,,,,,,,
03/21/2016 10:00,626,,,,,,,,,,,,,,,,,
03/21/2016 11:00,681,,,,,,,,,,,,,,,,,
03/21/2016 12:00,704,,,,,,,,,,,,,,,,,
03/21/2016 13:00,671,,,,,,,,,,,,,,,,,
03/21/2016 14:00,622,,,,,,,,,,,,,,,,,
03/21/2016 15:00,600,,,,,,,,,,,,,,,,,
03/21/2016 16:00,626,,,,,,,,,,,,,,,,,
03/21/2016 17:00,640,,,,,,,,,,,,,,,,,
03/21/2016 18:00,617,,,,,,,,,,,,,,,,,
03/21/2016 19:00,630,,,,,,,,,,,,,,,,,
03/21/2016 20:00,607,,,,,,,,,,,,,,,,,
03/21/2016 21:00,576,,,,,,,,,,,,,,,,,
03/21/2016 22:00,507,,,,,,,,,,,,,,,,,
03/21/2016 23:00,478,,,,,,,,,,,,,,,,,
03/22/2016 0:00,457,,,,,,,,,,,,,,,,,
03/22/2016 1:00,448,,,,,,,,,,,,,,,,,
03/22/2016 2:00,438,,,,,,,,,,,,,,,,,
03/22/2016 3:00,435,,,,,,,,,,,,,,,,,
03/22/2016 4:00,440,,,,,,,,,,,,,,,,,
03/22/2016 5:00,454,,,,,,,,,,,,,,,,,
03/22/2016 6:00,548,,,,,,,,,,,,,,,,,
03/22/2016 7:00,615,,,,,,,,,,,,,,,,,
03/22/2016 8:00,593,,,,,,,,,,,,,,,,,
03/22/2016 9:00,567,,,,,,,,,,,,,,,,,
03/22/2016 10:00,562,,,,,,,,,,,,,,,,,
03/22/2016 11:00,549,,,,,,,,,,,,,,,,,
03/22/2016 12:00,531,,,,,,,,,,,,,,,,,
03/22/2016 13:00,543,,,,,,,,,,,,,,,,,
03/22/2016 14:00,533,,,,,,,,,,,,,,,,,
03/22/2016 15:00,525,,,,,,,,,,,,,,,,,
03/22/2016 16:00,528,,,,,,,,,,,,,,,,,
03/22/2016 17:00,525,,,,,,,,,,,,,,,,,
03/22/2016 18:00,501,,,,,,,,,,,,,,,,,
03/22/2016 19:00,468,,,,,,,,,,,,,,,,,
03/22/2016 20:00,510,,,,,,,,,,,,,,,,,
03/22/2016 21:00,541,,,,,,,,,,,,,,,,,
03/22/2016 22:00,542,,,,,,,,,,,,,,,,,
03/22/2016 23:00,541,,,,,,,,,,,,,,,,,
03/23/2016 0:00,516,,,,,,,,,,,,,,,,,
03/23/2016 1:00,504,,,,,,,,,,,,,,,,,
03/23/2016 2:00,530,,,,,,,,,,,,,,,,,
03/23/2016 3:00,536,,,,,,,,,,,,,,,,,
03/23/2016 4:00,539,,,,,,,,,,,,,,,,,
03/23/2016 5:00,504,,,,,,,,,,,,,,,,,
03/23/2016 6:00,536,,,,,,,,,,,,,,,,,
03/23/2016 7:00,540,,,,,,,,,,,,,,,,,
03/23/2016 8:00,538,,,,,,,,,,,,,,,,,
03/23/2016 9:00,494,,,,,,,,,,,,,,,,,
03/23/2016 10:00,469,,,,,,,,,,,,,,,,,
03/23/2016 11:00,468,,,,,,,,,,,,,,,,,
03/23/2016 12:00,475,,,,,,,,,,,,,,,,,
03/23/2016 13:00,505,,,,,,,,,,,,,,,,,
03/23/2016 14:00,543,,,,,,,,,,,,,,,,,
03/23/2016 15:00,563,,,,,,,,,,,,,,,,,
03/23/2016 16:00,575,,,,,,,,,,,,,,,,,
03/23/2016 17:00,565,,,,,,,,,,,,,,,,,
03/23/2016 18:00,541,,,,,,,,,,,,,,,,,
03/23/2016 19:00,549,,,,,,,,,,,,,,,,,
03/23/2016 20:00,556,,,,,,,,,,,,,,,,,
03/23/2016 21:00,520,,,,,,,,,,,,,,,,,
03/23/2016 22:00,474,,,,,,,,,,,,,,,,,
03/23/2016 23:00,431,,,,,,,,,,,,,,,,,
03/24/2016 0:00,409,,,,,,,,,,,,,,,,,
03/24/2016 1:00,390,,,,,,,,,,,,,,,,,
03/24/2016 2:00,390,,,,,,,,,,,,,,,,,
03/24/2016 3:00,409,,,,,,,,,,,,,,,,,
03/24/2016 4:00,441,,,,,,,,,,,,,,,,,
03/24/2016 5:00,498,,,,,,,,,,,,,,,,,
03/24/2016 6:00,578,,,,,,,,,,,,,,,,,
03/24/2016 7:00,635,,,,,,,,,,,,,,,,,
03/24/2016 8:00,635,,,,,,,,,,,,,,,,,
03/24/2016 9:00,659,,,,,,,,,,,,,,,,,
03/24/2016 10:00,647,,,,,,,,,,,,,,,,,
03/24/2016 11:00,643,,,,,,,,,,,,,,,,,
03/24/2016 12:00,649,,,,,,,,,,,,,,,,,
03/24/2016 13:00,636,,,,,,,,,,,,,,,,,
03/24/2016 14:00,679,,,,,,,,,,,,,,,,,
03/24/2016 15:00,678,,,,,,,,,,,,,,,,,
03/24/2016 16:00,687,,,,,,,,,,,,,,,,,
03/24/2016 17:00,687,,,,,,,,,,,,,,,,,
03/24/2016 18:00,642,,,,,,,,,,,,,,,,,
03/24/2016 19:00,618,,,,,,,,,,,,,,,,,
03/24/2016 20:00,581,,,,,,,,,,,,,,,,,
03/24/2016 21:00,565,,,,,,,,,,,,,,,,,
03/24/2016 22:00,540,,,,,,,,,,,,,,,,,
03/24/2016 23:00,515,,,,,,,,,,,,,,,,,
03/25/2016 0:00,509,,,,,,,,,,,,,,,,,
03/25/2016 1:00,467,,,,,,,,,,,,,,,,,
03/25/2016 2:00,442,,,,,,,,,,,,,,,,,
03/25/2016 3:00,399,,,,,,,,,,,,,,,,,
03/25/2016 4:00,398,,,,,,,,,,,,,,,,,
03/25/2016 5:00,408,,,,,,,,,,,,,,,,,
03/25/2016 6:00,384,,,,,,,,,,,,,,,,,
03/25/2016 7:00,369,,,,,,,,,,,,,,,,,
03/25/2016 8:00,360,,,,,,,,,,,,,,,,,
03/25/2016 9:00,407,,,,,,,,,,,,,,,,,
03/25/2016 10:00,510,,,,,,,,,,,,,,,,,
03/25/2016 11:00,535,,,,,,,,,,,,,,,,,
03/25/2016 12:00,494,,,,,,,,,,,,,,,,,
03/25/2016 13:00,438,,,,,,,,,,,,,,,,,
03/25/2016 14:00,393,,,,,,,,,,,,,,,,,
03/25/2016 15:00,331,,,,,,,,,,,,,,,,,
03/25/2016 16:00,338,,,,,,,,,,,,,,,,,
03/25/2016 17:00,334,,,,,,,,,,,,,,,,,
03/25/2016 18:00,318,,,,,,,,,,,,,,,,,
03/25/2016 19:00,295,,,,,,,,,,,,,,,,,
03/25/2016 20:00,266,,,,,,,,,,,,,,,,,
03/25/2016 21:00,257,,,,,,,,,,,,,,,,,
03/25/2016 22:00,265,,,,,,,,,,,,,,,,,
03/25/2016 23:00,280,,,,,,,,,,,,,,,,,
03/26/2016 0:00,263,,,,,,,,,,,,,,,,,
03/26/2016 1:00,201,,,,,,,,,,,,,,,,,
03/26/2016 2:00,173,,,,,,,,,,,,,,,,,
03/26/2016 3:00,188,,,,,,,,,,,,,,,,,
03/26/2016 4:00,208,,,,,,,,,,,,,,,,,
03/26/2016 5:00,201,,,,,,,,,,,,,,,,,
03/26/2016 6:00,236,,,,,,,,,,,,,,,,,
03/26/2016 7:00,309,,,,,,,,,,,,,,,,,
03/26/2016 8:00,384,,,,,,,,,,,,,,,,,
03/26/2016 9:00,426,,,,,,,,,,,,,,,,,
03/26/2016 10:00,443,,,,,,,,,,,,,,,,,
03/26/2016 11:00,429,,,,,,,,,,,,,,,,,
03/26/2016 12:00,419,,,,,,,,,,,,,,,,,
03/26/2016 13:00,423,,,,,,,,,,,,,,,,,
03/26/2016 14:00,417,,,,,,,,,,,,,,,,,
03/26/2016 15:00,434,,,,,,,,,,,,,,,,,
03/26/2016 16:00,418,,,,,,,,,,,,,,,,,
03/26/2016 17:00,413,,,,,,,,,,,,,,,,,
03/26/2016 18:00,418,,,,,,,,,,,,,,,,,
03/26/2016 19:00,433,,,,,,,,,,,,,,,,,
03/26/2016 20:00,454,,,,,,,,,,,,,,,,,
03/26/2016 21:00,448,,,,,,,,,,,,,,,,,